Flag for Russia Weather past 2 weeks in Kovrov, Russia

30 °F


Feels Like: 27 °F
Forecast: 17 / 25 °F
Wind: 3 mph from South

Location: Nizhny Novgorod/Strigino

Current Time: Nov 25, 2015 at 9:37:56 AM

Latest Report: Nov 25, 2015 at 9:00 AM

Visibility: 5 mi

Pressure: 30.15 "Hg

Humidity: 93%

Dew point: 28 °F

Location of KovrovLocation

Historic Weather in Kovrov — Graph


Kovrov temperature yesterday

Maximum temperature yesterday: 32 °F (at 2:00 PM)
Minimum temperature yesterday: 27 °F (at 12:00 AM)
Average temperature yesterday: 29 °F

Past Weeks' High & Low Weather Summary

High37 °F (Nov 21, 9:30 PM)100% (Nov 10, 10:30 AM)30.18 "Hg (Nov 10, 10:30 AM)
Low21 °F (Nov 14, 8:00 AM)69% (Nov 24, 2:00 PM)29.27 "Hg (Nov 21, 8:30 AM)
Average30 °F90%29.79 "Hg
* Reported Nov 10 8:00 AM — Nov 25 8:30 AM, Kovrov, Weather by CustomWeather, © 2015

Note: Actual official high and low records may vary slightly from our data, if they occured in-between our weather recording intervals... More about our weather records


Kovrov weather history for previous 24 hours

Time TempWeatherWind HumidityBarometerVisibility
8:30 AM
Wed, Nov 25
30 °FOvercast.1 mph93%30.15 "Hg5 mi
8:00 AM30 °FOvercast.No wind93%30.15 "Hg5 mi
7:30 AM30 °FOvercast.3 mph93%30.15 "Hg5 mi
7:00 AM30 °FOvercast.6 mph93%30.12 "Hg5 mi
6:30 AM30 °FOvercast.3 mph93%30.15 "Hg6 mi
6:00 AM30 °FOvercast.3 mph93%30.12 "Hg6 mi
5:30 AM30 °FOvercast.3 mph93%30.12 "Hg6 mi
5:00 AM30 °FOvercast.3 mph93%30.12 "Hg6 mi
4:30 AM30 °FOvercast.3 mph93%30.12 "Hg6 mi
4:00 AM30 °FOvercast.3 mph93%30.12 "Hg6 mi
3:30 AM30 °FOvercast.3 mph93%30.15 "Hg6 mi
3:00 AM32 °FOvercast.3 mph87%30.15 "Hg6 mi
2:30 AM30 °FLight snow. Overcast.3 mph93%30.15 "Hg6 mi
2:00 AM30 °FOvercast.6 mph93%30.15 "Hg6 mi
1:30 AM30 °FOvercast.6 mph86%30.15 "HgN/A
1:00 AM30 °FOvercast.6 mph86%30.15 "HgN/A
12:30 AM30 °FLight snow. Overcast.6 mph86%30.15 "Hg6 mi
12:00 AM30 °FLight snow. Overcast.6 mph86%30.15 "Hg6 mi
11:30 PM
Tue, Nov 24
30 °FLight snow. Overcast.6 mph86%30.15 "Hg4 mi
11:00 PM30 °FLight snow. Overcast.3 mph86%30.15 "HgN/A
10:30 PM30 °FLight snow. Overcast.6 mph86%30.15 "HgN/A
10:00 PM30 °FLight snow. Overcast.6 mph86%30.15 "Hg4 mi
9:30 PM30 °FLight snow. Overcast.6 mph86%30.15 "Hg4 mi
9:00 PM30 °FLight snow. Overcast.8 mph80%30.15 "Hg5 mi
8:30 PM30 °FOvercast.8 mph80%30.15 "HgN/A
8:00 PM30 °FLight snow. Overcast.3 mph80%30.15 "Hg6 mi
7:30 PM30 °FOvercast.6 mph75%30.15 "HgN/A
7:00 PM30 °FOvercast.3 mph75%30.15 "HgN/A
6:30 PM28 °FLight snow. Overcast.6 mph80%30.18 "HgN/A
6:00 PM28 °FPassing clouds.3 mph80%30.18 "HgN/A
5:30 PM28 °FPassing clouds.3 mph80%30.15 "HgN/A
5:00 PM28 °FOvercast.6 mph86%30.18 "HgN/A
4:30 PM28 °FLight snow. Overcast.3 mph86%30.18 "HgN/A
4:00 PM30 °FLight snow. Low clouds.6 mph80%30.18 "Hg4 mi
3:30 PM30 °FOvercast.6 mph75%30.18 "HgN/A
3:00 PM30 °FOvercast.6 mph75%30.18 "HgN/A
2:30 PM32 °FOvercast.6 mph69%30.18 "HgN/A
2:00 PM32 °FOvercast.6 mph69%30.18 "HgN/A
1:30 PM30 °FOvercast.6 mph75%30.18 "HgN/A
1:00 PM30 °FOvercast.6 mph80%30.18 "HgN/A
12:30 PM30 °FOvercast.3 mph80%30.18 "HgN/A
12:00 PM30 °FOvercast.3 mph86%30.18 "HgN/A
11:30 AM30 °FOvercast.3 mph80%30.18 "HgN/A
11:00 AM30 °FOvercast.3 mph80%30.18 "HgN/A
10:30 AM30 °FOvercast.3 mph86%30.18 "HgN/A
10:00 AM30 °FOvercast.3 mph80%30.18 "HgN/A
9:00 AM28 °FOvercast.3 mph86%30.18 "HgN/A
Weather by CustomWeather, © 2015

See weather overviewHow to use our weather pages